FW0270 Weather Reports


Display with metric or nautical units.
time (UTC)temp
F
wind
direction
speed
MPH
gust
MPH
rain 1hr
in
rain 24hr
in
rain mn
in
humidity
%
barometer
mb
20260906094537 68 122 0.0 0.0 0.00 0.00 0.00 97 1017.0
20260906093026 68 122 0.0 0.0 0.00 0.00 0.00 97 1016.7
20260906091525 68 122 0.0 1.0 0.00 0.00 0.00 97 1016.4
20260906090026 68 122 0.0 1.0 0.00 0.00 0.00 96 1016.4
20260906084528 69 126 0.0 1.0 0.00 0.00 0.00 96 1016.5
20260906083021 69 139 0.0 1.0 0.00 0.00 0.00 96 1016.5
20260906081539 69 152 0.0 1.0 0.00 0.00 0.00 96 1016.4
20260906080017 70 210 0.0 1.0 0.00 0.00 0.00 95 1016.5
20260906074516 70 186 0.0 2.0 0.00 0.00 0.00 95 1016.7
20260906073017 70 60 0.0 3.0 0.00 0.00 0.00 95 1016.5
20260906071513 70 131 0.0 2.0 0.00 0.00 0.00 95 1016.5
20260906070013 70 295 0.0 1.0 0.00 0.00 0.00 95 1016.9
20260906064512 70 46 0.0 2.0 0.00 0.00 0.00 95 1017.2
20260906063012 70 124 0.0 1.0 0.00 0.00 0.00 95 1017.2
20260906061512 70 43 0.0 2.0 0.00 0.00 0.00 94 1017.0
20260906060008 70 62 0.0 1.0 0.00 0.00 0.00 94 1017.1
20260906054507 71 43 0.0 2.0 0.00 0.00 0.00 94 1017.0
20260906053005 71 30 0.0 1.0 0.00 0.00 0.00 95 1016.9
20260906051504 71 32 0.0 2.0 0.00 0.00 0.00 95 1016.7
20260906050002 71 116 0.0 1.0 0.00 0.00 0.00 94 1016.7
20260906044501 71 117 0.0 1.0 0.00 0.00 0.00 94 1016.6
20260906043100 71 118 0.0 1.0 0.00 0.00 0.00 94 1016.8
20260906041600 72 118 0.0 0.0 0.00 0.00 0.00 94 1016.7
20260906040135 72 118 0.0 0.0 0.00 0.00 0.00 93 1016.6
20260906034605 72 118 0.0 1.0 0.00 0.00 0.00 93 1016.8
20260906033058 72 118 0.0 1.0 0.00 0.00 0.00 93 1016.6
20260906031602 73 117 0.0 0.0 0.00 0.00 0.00 93 1016.5
20260906030055 73 117 0.0 0.0 0.00 0.00 0.00 93 1016.3
20260906024553 73 117 0.0 1.0 0.00 0.00 0.00 92 1016.1
20260906023052 73 129 0.0 1.0 0.00 0.00 0.00 92 1016.1
20260906021602 74 229 0.0 0.0 0.00 0.00 0.00 92 1016.0
20260906020057 74 79 0.0 2.0 0.00 0.00 0.00 92 1015.5
20260906014557 74 113 0.0 4.0 0.00 0.00 0.00 92 1015.3
20260906013049 74 205 0.0 2.0 0.00 0.00 0.00 93 1014.9
20260906011550 74 218 0.0 0.0 0.00 0.00 0.00 92 1014.9
20260906010051 75 218 0.0 0.0 0.00 0.00 0.00 92 1014.7
20260906004553 75 218 0.0 0.0 0.00 0.00 0.00 91 1014.7
20260906003048 76 218 0.0 0.0 0.00 0.00 0.00 89 1014.5
20260906001553 77 218 0.0 0.0 0.00 0.00 0.00 88 1014.4
20260906000046 77 218 0.0 0.0 0.00 0.00 0.00 87 1014.4
20260905234545 78 113 0.0 1.0 0.00 0.00 0.00 85 1014.2
20260905233045 79 25 0.0 4.0 0.00 0.00 0.00 83 1014.4
20260905231545 81 109 0.0 4.0 0.00 0.00 0.00 81 1014.4
20260905230051 81 70 1.0 5.0 0.00 0.00 0.00 81 1014.0
20260905224551 81 22 1.0 9.0 0.00 0.00 0.00 81 1014.0
20260905223045 82 124 2.0 7.0 0.00 0.00 0.00 80 1013.8
20260905221547 83 122 2.0 9.0 0.00 0.00 0.00 79 1013.9
20260905220042 82 133 1.0 9.0 0.00 0.00 0.00 81 1013.9
20260905214540 82 335 3.0 8.0 0.00 0.00 0.00 81 1014.0
20260905213040 82 112 3.0 7.0 0.00 0.00 0.00 81 1014.0
20260905211545 82 165 3.0 10.0 0.00 0.00 0.00 83 1014.1
20260905210056 82 118 2.0 7.0 0.00 0.00 0.00 83 1014.3
20260905204539 83 105 1.0 7.0 0.00 0.00 0.00 83 1014.5
20260905203041 82 13 2.0 9.0 0.00 0.00 0.00 84 1014.7
20260905201540 83 80 2.0 8.0 0.00 0.00 0.00 82 1014.7
20260905200052 84 342 2.0 7.0 0.00 0.00 0.00 81 1014.9
20260905194537 84 353 3.0 8.0 0.00 0.00 0.00 82 1014.9
20260905193035 83 349 2.0 8.0 0.00 0.00 0.00 83 1015.0
20260905191540 84 133 2.0 6.0 0.00 0.00 0.00 81 1015.1
20260905190034 84 290 1.0 7.0 0.00 0.00 0.00 83 1015.5
20260905184536 84 30 1.0 8.0 0.00 0.00 0.00 82 1015.6
20260905183032 83 53 3.0 9.0 0.00 0.00 0.00 82 1015.7
20260905181531 83 15 3.0 9.0 0.00 0.00 0.00 83 1015.6
20260905180034 83 33 2.0 8.0 0.00 0.00 0.00 83 1015.4
20260905174532 82 27 4.0 11.0 0.00 0.00 0.00 85 1015.3
20260905173027 84 335 2.0 7.0 0.00 0.00 0.00 83 1015.3
20260905171540 85 23 1.0 10.0 0.00 0.00 0.00 83 1015.1
20260905170031 85 350 2.0 9.0 0.00 0.00 0.00 83 1015.1
20260905164525 86 27 2.0 7.0 0.00 0.00 0.00 81 1015.2
20260905163026 86 117 1.0 6.0 0.00 0.00 0.00 81 1015.2
20260905161533 85 30 1.0 5.0 0.00 0.00 0.00 82 1015.2
20260905160028 84 105 1.0 9.0 0.00 0.00 0.00 83 1015.2
20260905154528 84 25 1.0 6.0 0.00 0.00 0.00 84 1015.1
20260905153016 83 174 1.0 5.0 0.00 0.00 0.00 85 1015.0
20260905151515 83 20 3.0 8.0 0.00 0.00 0.00 84 1015.0
20260905150010 83 98 1.0 5.0 0.00 0.00 0.00 85 1015.0
20260905144505 82 77 0.0 5.0 0.00 0.00 0.00 84 1014.6
20260905143004 81 68 1.0 5.0 0.00 0.00 0.00 84 1014.4
20260905141600 80 123 0.0 2.0 0.00 0.00 0.00 86 1014.6
20260905140057 79 113 0.0 2.0 0.00 0.00 0.00 87 1014.5
20260905134555 77 27 0.0 3.0 0.00 0.00 0.00 89 1014.4
20260905133047 76 115 0.0 2.0 0.00 0.00 0.00 91 1014.0
20260905131544 75 102 0.0 0.0 0.00 0.00 0.00 92 1014.1
20260905130040 74 102 0.0 0.0 0.00 0.00 0.00 93 1013.8
20260905124546 72 102 0.0 2.0 0.00 0.00 0.00 94 1013.8
20260905123037 0 0.0 0.0 0.00 0.00 0.00 1013.6
20260905121532 0 0.0 0.0 0.00 0.00 0.00 1013.7
20260905120031 0 0.0 0.0 0.00 0.00 0.00 1013.7
20260905114524 0 0.0 0.0 0.00 0.00 0.00 1013.4
20260905113019 0 0.0 0.0 0.00 0.00 0.00 1013.1
20260905111515 0 0.0 0.0 0.00 0.00 0.00 1013.3
20260905110011 0 113 0.0 0.0 0.00 0.00 0.00 1013.5
20260905104512 69 111 0.0 0.0 0.00 0.00 0.00 98 1013.1
20260905103008 69 111 0.0 0.0 0.00 0.00 0.00 98 1012.9
20260905101507 69 111 0.0 0.0 0.00 0.00 0.00 97 1012.7
20260905100006 69 111 0.0 0.0 0.00 0.00 0.00 97 1012.4